SWR8PV LSGG-LSZH

Flight info

Callsign SWR8PV
Flight time 0h 25m
Altitude 17000
Route SOSAL N871 BERSU
Aircraft A320/M-SDE3FGHIRWY/LB1

Departure

Time 2026-05-04 23:51
Airport Geneva International Airport (LSGG)

Arrival

Time 2026-05-05 00:16
Airport Zürich Airport (LSZH)
Time Latitude Longitude Altitude Speed Heading
2026-05-04 23:38 46.23009 6.10341 1396 ft 0 kts 90°
2026-05-04 23:49 46.22995 6.10365 1396 ft 10 kts 158°
2026-05-04 23:49 46.22971 6.10282 1395 ft 11 kts 308°
2026-05-04 23:49 46.23028 6.10199 1393 ft 12 kts 315°
2026-05-04 23:49 46.23090 6.10113 1402 ft 12 kts 319°
2026-05-04 23:50 46.23158 6.10101 1401 ft 10 kts 12°
2026-05-04 23:50 46.23247 6.10129 1402 ft 22 kts 14°
2026-05-04 23:50 46.23470 6.10400 1385 ft 74 kts 45°
2026-05-04 23:50 46.23995 6.11168 1379 ft 138 kts 46°
2026-05-04 23:51 46.24767 6.12288 1626 ft 164 kts 45°
2026-05-04 23:51 46.25563 6.13463 2314 ft 165 kts 44°
2026-05-04 23:51 46.26398 6.14679 2799 ft 181 kts 45°
2026-05-04 23:51 46.27336 6.16064 3090 ft 204 kts 45°
2026-05-04 23:52 46.28402 6.17630 3377 ft 231 kts 45°
2026-05-04 23:52 46.29586 6.19375 3801 ft 254 kts 45°
2026-05-04 23:52 46.30849 6.21244 4525 ft 264 kts 46°
2026-05-04 23:52 46.32151 6.23178 5336 ft 271 kts 46°
2026-05-04 23:53 46.33487 6.25153 6161 ft 277 kts 46°
2026-05-04 23:53 46.34850 6.27157 6982 ft 282 kts 46°
2026-05-04 23:53 46.36177 6.29276 7758 ft 286 kts 56°
2026-05-04 23:53 46.37178 6.31788 8552 ft 290 kts 64°
2026-05-04 23:54 46.38226 6.34317 9344 ft 296 kts 59°
2026-05-04 23:54 46.39413 6.36779 10122 ft 301 kts 56°
2026-05-04 23:54 46.40691 6.39293 10494 ft 321 kts 55°
2026-05-04 23:54 46.42066 6.41983 10699 ft 344 kts 55°
2026-05-04 23:55 46.43523 6.44870 10876 ft 365 kts 56°
2026-05-04 23:55 46.45020 6.47902 11370 ft 374 kts 56°
2026-05-04 23:55 46.48045 6.54170 12663 ft 384 kts 57°
2026-05-04 23:56 46.49578 6.57380 13328 ft 389 kts 57°
2026-05-04 23:56 46.51123 6.60620 13938 ft 393 kts 57°
2026-05-04 23:56 46.52628 6.63961 14514 ft 397 kts 61°
2026-05-04 23:56 46.54005 6.67446 15118 ft 400 kts 62°
2026-05-04 23:57 46.55360 6.71001 15706 ft 403 kts 63°
2026-05-04 23:57 46.56702 6.74598 16286 ft 407 kts 63°
2026-05-04 23:57 46.58043 6.78232 16875 ft 410 kts 64°
2026-05-04 23:57 46.59398 6.81913 17456 ft 414 kts 64°
2026-05-04 23:58 46.60765 6.85623 17882 ft 418 kts 64°
2026-05-04 23:58 46.62149 6.89362 17967 ft 426 kts 63°
2026-05-04 23:58 46.63583 6.93226 17996 ft 442 kts 63°
2026-05-04 23:58 46.65067 6.97212 17996 ft 454 kts 63°
2026-05-04 23:59 46.66585 7.01273 17996 ft 457 kts 63°
2026-05-04 23:59 46.68107 7.05340 17995 ft 458 kts 63°
2026-05-04 23:59 46.69625 7.09421 17995 ft 458 kts 63°
2026-05-04 23:59 46.71138 7.13507 17995 ft 458 kts 63°
2026-05-05 00:00 46.72650 7.17606 17992 ft 458 kts 63°
2026-05-05 00:00 46.73159 7.18988 17993 ft 458 kts 63°
2026-05-05 00:00 46.75661 7.25795 17978 ft 458 kts 63°
2026-05-05 00:00 46.77159 7.29869 17860 ft 452 kts 63°
2026-05-05 00:01 46.78632 7.33877 17584 ft 445 kts 63°
2026-05-05 00:01 46.80088 7.37837 17314 ft 443 kts 63°
2026-05-05 00:01 46.81534 7.41783 17050 ft 440 kts 63°
2026-05-05 00:01 46.82974 7.45723 16790 ft 439 kts 63°
2026-05-05 00:02 46.84408 7.49648 16531 ft 437 kts 63°
2026-05-05 00:02 46.85830 7.53552 16281 ft 435 kts 63°
2026-05-05 00:02 46.87247 7.57451 16028 ft 433 kts 63°
2026-05-05 00:02 46.88656 7.61330 15778 ft 431 kts 63°
2026-05-05 00:03 46.90060 7.65199 15530 ft 429 kts 63°
2026-05-05 00:03 46.91453 7.69048 15285 ft 428 kts 64°
2026-05-05 00:03 46.92839 7.72883 15045 ft 426 kts 63°
2026-05-05 00:03 46.94227 7.76721 14799 ft 426 kts 63°
2026-05-05 00:04 46.95609 7.80540 14555 ft 424 kts 63°
2026-05-05 00:04 46.96988 7.84356 14336 ft 423 kts 63°
2026-05-05 00:04 46.98358 7.88161 14092 ft 421 kts 63°
2026-05-05 00:04 46.99715 7.91944 13854 ft 419 kts 63°
2026-05-05 00:05 47.01066 7.95709 13570 ft 415 kts 63°
2026-05-05 00:05 47.02385 7.99387 12995 ft 400 kts 63°
2026-05-05 00:05 47.03654 8.02929 12407 ft 386 kts 63°
2026-05-05 00:05 47.04886 8.06383 11801 ft 380 kts 63°
2026-05-05 00:06 47.06103 8.09804 11199 ft 375 kts 64°
2026-05-05 00:06 47.07279 8.13105 10970 ft 353 kts 64°
2026-05-05 00:06 47.08377 8.16183 10847 ft 330 kts 64°
2026-05-05 00:06 47.09404 8.19067 10587 ft 311 kts 64°
2026-05-05 00:07 47.10386 8.21837 10331 ft 303 kts 64°
2026-05-05 00:07 47.11354 8.24569 10072 ft 301 kts 64°
2026-05-05 00:07 47.12312 8.27272 9877 ft 296 kts 64°
2026-05-05 00:07 47.13257 8.29945 9749 ft 294 kts 63°
2026-05-05 00:08 47.14196 8.32598 9622 ft 293 kts 64°
2026-05-05 00:08 47.15135 8.35249 9487 ft 292 kts 64°
2026-05-05 00:08 47.16067 8.37890 9356 ft 291 kts 64°
2026-05-05 00:08 47.16998 8.40534 9188 ft 291 kts 64°
2026-05-05 00:09 47.17928 8.43179 8506 ft 290 kts 64°
2026-05-05 00:09 47.18862 8.45833 7860 ft 286 kts 64°
2026-05-05 00:09 47.19755 8.48370 7256 ft 282 kts 63°
2026-05-05 00:09 47.20651 8.50917 6637 ft 278 kts 63°
2026-05-05 00:10 47.21531 8.53423 6130 ft 270 kts 63°
2026-05-05 00:10 47.22360 8.55788 6065 ft 245 kts 64°
2026-05-05 00:10 47.23119 8.57959 6011 ft 236 kts 64°
2026-05-05 00:10 47.23867 8.60098 5964 ft 233 kts 64°
2026-05-05 00:11 47.24590 8.62170 5873 ft 222 kts 63°
2026-05-05 00:11 47.25468 8.64016 5619 ft 220 kts 45°
2026-05-05 00:11 47.26686 8.65287 5463 ft 212 kts 25°
2026-05-05 00:11 47.28089 8.65894 5289 ft 210 kts
2026-05-05 00:12 47.29540 8.65800 5055 ft 209 kts 347°
2026-05-05 00:12 47.30886 8.65044 4816 ft 206 kts 335°
2026-05-05 00:12 47.32178 8.64158 4486 ft 203 kts 335°
2026-05-05 00:12 47.33449 8.63289 4176 ft 200 kts 335°
2026-05-05 00:13 47.34685 8.62443 3890 ft 192 kts 336°
2026-05-05 00:13 47.35877 8.61627 3616 ft 185 kts 336°
2026-05-05 00:13 47.37026 8.60840 3349 ft 180 kts 336°
2026-05-05 00:13 47.38148 8.60070 3094 ft 175 kts 335°
2026-05-05 00:14 47.39229 8.59329 2841 ft 165 kts 335°
2026-05-05 00:14 47.40227 8.58644 2595 ft 153 kts 335°
2026-05-05 00:14 47.41175 8.57993 2362 ft 148 kts 335°
2026-05-05 00:14 47.42107 8.57354 2127 ft 147 kts 335°
2026-05-05 00:15 47.43028 8.56719 1904 ft 146 kts 335°
2026-05-05 00:15 47.43949 8.56089 1686 ft 145 kts 335°
2026-05-05 00:15 47.44859 8.55462 1459 ft 144 kts 335°
2026-05-05 00:15 47.45709 8.54878 1392 ft 111 kts 335°
2026-05-05 00:16 47.46169 8.54561 1386 ft 50 kts 335°
2026-05-05 00:16 47.46368 8.54425 1382 ft 15 kts 338°
2026-05-05 00:16 47.46436 8.54445 1380 ft 16 kts 43°
2026-05-05 00:16 47.46478 8.54577 1385 ft 11 kts 71°
2026-05-05 00:17 47.46451 8.54645 1385 ft 9 kts 157°
2026-05-05 00:17 47.46375 8.54695 1384 ft 15 kts 154°
2026-05-05 00:17 47.46266 8.54771 1385 ft 19 kts 156°
2026-05-05 00:17 47.46135 8.54861 1388 ft 23 kts 155°
2026-05-05 00:18 47.45982 8.54967 1401 ft 26 kts 155°
2026-05-05 00:18 47.45812 8.55084 1399 ft 29 kts 155°
2026-05-05 00:18 47.45625 8.55214 1397 ft 30 kts 153°
2026-05-05 00:18 47.45487 8.55310 1406 ft 20 kts 155°
2026-05-05 00:19 47.45359 8.55398 1403 ft 19 kts 154°
2026-05-05 00:19 47.45285 8.55536 1409 ft 16 kts 113°
2026-05-05 00:19 47.45268 8.55688 1407 ft 7 kts 97°
2026-05-05 00:19 47.45240 8.55722 1409 ft 5 kts 176°
2026-05-05 00:20 47.45211 8.55717 1407 ft 3 kts 187°
2026-05-05 00:20 47.45191 8.55714 1412 ft 2 kts 186°
2026-05-05 00:20 47.45179 8.55712 1407 ft 1 kts 185°
2026-05-05 00:20 47.45177 8.55711 1407 ft 0 kts 185°